Dewpoint
45 48 51 54 57 57 57 57 54 51 52 55 56 59 60 61 62 62 62 61 57 56 55 56 57 59 60 61 61 61 61 60 60 59 58 58 57 56
44 46 47 50 55 58 56 56 57 54 53 54 55 55 56 56 55 60 61 60 58 56 54 54 55 56 57 59 59 59 60 60 59 60 59 58 57 57
46 46 48 49 49 54 57 57 56 55 53 54 57 56 54 55 57 61 61 61 60 56 54 53 53 54 55 56 57 58 58 59 59 59 58 58 57 57
37 37 38 42 46 53 55 57 57 58 56 54 55 56 55 55 57 59 60 60 60 59 54 52 52 52 52 53 55 55 56 57 57 57 58 57 57 57
32 34 33 33 35 40 42 42 53 57 56 55 54 55 57 58 58 59 59 60 60 60 57 54 52 51 50 51 52 53 53 54 55 55 56 56 56 56
30 31 31 30 30 32 33 33 38 45 55 56 55 55 56 57 57 56 57 59 58 59 58 55 52 50 49 49 49 50 51 52 53 53 53 53 54 54
27 28 30 31 30 30 29 29 31 38 39 43 50 53 53 52 51 50 55 55 57 54 58 55 53 51 51 49 50 49 49 50 50 51 51 51 51 51
24 26 27 27 28 28 28 28 28 27 27 29 28 29 29 28 31 35 40 51 53 37 42 54 54 52 52 49 48 49 47 48 48 48 48 48 48 48
23 23 24 25 25 25 24 24 26 26 26 25 23 24 24 26 28 33 35 36 34 31 35 46 40 42 38 38 39 40 41 42 42 42 43 43 44 44
23 22 22 22 23 23 23 22 22 24 26 26 25 25 25 26 26 29 31 34 34 31 28 35 34 34 34 34 36 37 37 37 36 36 36 37 37 37
18 19 20 20 20 19 20 20 20 21 24 24 25 24 23 24 25 23 24 27 33 27 26 28 31 32 33 32 32 33 33 33 33 34 35 34 35 35
14 16 15 15 15 16 17 17 16 18 19 20 20 22 23 23 23 23 23 22 23 22 24 24 26 29 32 32 32 31 32 31 32 31 31 32 33 36
12 12 13 11 11 12 13 15 14 16 16 17 18 18 19 21 22 23 24 23 21 21 23 23 24 24 25 27 31 30 29 29 30 30 30 30 30 31
10 10 9 6 7 6 8 9 10 12 12 13 13 14 15 17 19 20 19 23 23 22 23 23 23 22 22 24 27 30 29 28 28 28 28 29 29 29
7 7 5 4 3 3 3 4 6 8 9 9 10 11 13 15 16 16 17 18 18 19 21 20 21 21 24 24 24 25 24 27 27 27 27 26 27 28
4 4 4 3 2 3 3 3 3 4 6 6 7 8 9 10 11 12 12 12 12 14 16 18 20 21 22 22 23 22 23 23 26 27 27 26 26 27
3 2 2 2 1 1 1 1 0 -0 1 3 4 5 5 6 7 8 9 9 10 10 11 13 17 17 21 22 20 20 21 22 24 25 25 25 26 26
3 2 2 2 0 -0 -0 -1 -1 -1 -1 -0 1 1 2 4 5 6 6 7 7 7 8 10 11 13 13 19 19 18 18 20 22 23 23 23 23 24
4 3 3 3 1 -1 -1 -1 -2 -1 -2 -1 -1 0 1 2 3 3 4 4 4 4 4 5 9 10 10 10 13 17 17 18 20 20 21 21 21 22
4 4 4 3 1 -0 -0 -0 -0 -1 -1 -1 -1 -1 -0 -0 1 1 1 2 3 2 2 1 3 8 10 11 14 15 17 18 19 20 20 20 21 22
3 3 5 5 4 3 4 4 3 1 -0 -0 -1 -1 -0 -0 -1 -1 0 1 1 0 0 0 1 5 10 12 12 12 15 18 20 20 20 19 18 18
1 2 3 4 5 5 5 5 3 2 0 -1 -1 -1 -0 -0 -1 -1 -2 -1 -1 -1 -1 -1 -0 2 7 8 8 9 12 15 18 20 21 21 19 17
-1 -1 1 2 3 3 2 3 4 4 3 1 0 -1 -1 -1 -1 -2 -2 -2 -2 -2 -1 -0 0 1 4 7 10 9 11 13 14 15 18 18 20 21
Wind_Speed
17 13 14 12 21 22 21 20 20 21 27 17 13 16 15 18 19 19 21 23 29 34 34 33 32 33 33 32 32 32 33 34 34 34 35 35 34 33
14 18 19 14 14 15 24 24 21 26 18 15 16 16 22 30 29 22 22 21 22 30 33 32 31 31 32 34 33 33 34 34 33 34 35 35 36 35
13 13 15 15 15 18 15 19 24 25 35 28 20 30 32 20 12 16 15 16 16 26 30 32 32 33 32 34 34 35 35 35 34 33 33 34 36 36
21 21 20 14 16 12 18 14 17 16 21 26 20 18 21 19 21 22 18 12 16 18 26 30 31 33 33 34 34 35 35 35 35 34 34 34 36 37
25 24 25 24 21 16 16 16 11 12 16 16 16 13 16 17 19 18 17 10 14 16 21 27 30 31 31 32 32 32 32 34 35 35 34 35 35 36
25 29 27 29 27 22 20 19 14 13 8 15 15 15 13 10 14 14 10 10 13 12 16 19 22 25 28 28 26 26 29 30 29 31 32 34 34 34
28 26 28 28 34 34 26 27 20 14 14 14 8 8 9 10 9 11 13 13 13 7 14 13 13 13 15 22 22 27 29 29 27 28 28 29 30 32
28 26 25 29 26 33 32 39 38 27 25 19 17 16 18 18 16 14 11 8 18 12 6 9 8 11 4 6 12 15 22 22 22 23 24 26 25 26
29 26 26 25 26 23 28 33 35 39 33 25 22 23 18 21 16 13 9 6 6 14 6 3 9 6 9 8 8 10 11 9 7 5 6 10 13 16
30 30 30 30 31 25 24 28 29 28 29 23 21 19 20 21 20 13 13 10 5 8 17 5 13 9 7 9 14 13 11 12 10 9 8 4 2 5
27 32 29 31 37 34 28 25 24 26 21 26 27 29 28 31 30 20 26 15 6 8 19 9 10 5 3 7 6 12 11 12 9 10 10 8 6 5
24 26 36 33 36 37 29 25 24 23 22 22 24 24 25 25 30 23 20 16 12 8 16 13 11 10 4 3 7 8 9 12 10 11 10 10 12 6
23 23 25 33 36 34 31 26 23 19 22 20 20 21 21 21 20 20 19 17 15 7 12 11 12 10 6 6 4 5 10 9 9 7 7 8 8 9
22 20 22 29 31 34 28 29 25 19 17 19 19 20 20 21 20 18 18 12 11 11 14 16 7 10 7 5 5 7 8 2 7 9 8 6 6 7
20 21 25 27 27 25 32 29 25 21 20 20 20 20 19 17 16 18 16 13 9 13 13 15 13 12 9 8 8 6 8 6 6 7 8 8 8 7
18 18 20 21 22 21 22 23 21 20 20 19 19 17 17 18 19 19 17 19 13 16 15 16 17 12 8 9 8 9 10 7 10 7 6 6 8 7
15 17 20 21 22 22 21 22 22 21 22 20 19 20 19 19 18 17 17 16 16 17 19 19 19 13 7 9 8 12 11 9 9 10 8 6 6 8
18 20 20 20 21 20 21 20 20 21 19 18 18 18 17 17 18 17 16 17 17 16 16 17 17 16 11 1 8 12 11 11 10 8 6 6 4 7
18 18 17 17 17 17 17 18 18 17 16 15 15 16 16 16 17 16 16 16 16 15 15 15 15 15 14 12 8 3 13 14 11 8 7 5 3 6
15 15 15 14 14 14 14 15 15 14 15 15 16 16 16 15 15 15 15 17 17 16 16 14 14 15 14 15 16 15 8 12 14 9 6 2 2 1
15 14 13 13 12 12 11 12 12 13 13 14 15 16 16 15 15 16 16 16 16 15 17 17 18 19 15 14 11 12 9 5 10 11 5 5 3 3
13 13 14 13 12 12 12 11 12 12 12 13 14 14 15 15 16 17 17 17 17 17 17 17 18 17 14 13 13 14 12 8 5 3 8 8 5 3
13 13 13 13 13 13 13 13 12 11 10 11 12 13 14 16 15 16 17 17 16 17 17 19 18 16 14 13 13 11 11 9 7 6 3 6 8 8
Wind_Direction
264 284 291 286 239 222 225 217 221 237 235 219 212 211 213 223 222 221 233 235 229 231 227 222 217 220 218 213 209 206 209 212 215 216 216 217 220 220
263 264 263 272 298 241 232 232 222 227 244 207 218 246 251 244 236 220 228 228 230 231 230 227 223 222 216 216 214 211 210 212 217 217 217 216 218 219
260 272 267 272 258 279 259 230 237 225 239 241 223 232 245 257 242 229 227 216 229 230 227 228 225 224 221 220 212 215 214 211 214 217 219 217 217 220
31 32 24 5 358 274 274 259 233 210 222 223 208 216 236 247 238 231 222 204 225 229 224 224 227 226 224 221 213 214 215 214 215 216 217 219 220 222
37 39 33 29 23 9 14 8 318 223 215 230 237 227 226 230 224 227 229 215 231 234 228 225 225 227 225 224 223 218 219 218 216 218 220 221 221 221
43 41 41 40 34 28 27 14 352 342 267 219 230 237 230 224 235 242 235 216 242 249 233 225 222 225 227 221 221 220 219 219 221 223 223 223 224 225
45 42 41 45 47 47 43 34 25 25 17 9 1 322 302 304 320 323 271 265 246 276 243 217 215 216 227 224 221 219 220 218 220 224 229 232 231 233
42 41 38 34 39 46 45 51 47 44 42 43 34 26 16 356 346 335 332 312 239 28 317 224 195 199 190 197 217 222 219 222 222 227 233 236 237 238
38 39 40 34 36 39 43 48 46 47 47 44 43 32 23 357 348 336 353 329 359 348 319 269 358 123 67 52 76 113 124 141 153 175 223 242 247 246
39 34 37 34 33 35 40 44 43 41 41 41 42 35 28 18 14 351 331 311 104 359 357 23 5 35 38 38 47 45 72 93 98 99 100 87 9 288
40 40 39 36 33 31 38 40 40 34 29 35 36 34 32 30 28 23 15 356 37 16 12 351 352 349 352 73 31 43 43 11 72 67 58 42 19 323
39 37 38 42 39 37 36 31 35 23 20 26 24 23 16 26 29 32 14 16 10 9 1 352 348 352 343 61 51 28 47 8 348 51 37 16 12 353
38 33 33 36 40 40 41 36 33 23 23 27 28 24 21 15 22 20 28 16 19 23 342 331 12 3 323 329 13 40 23 3 328 353 33 8 350 13
41 37 33 36 39 40 39 35 34 37 34 36 34 26 19 12 8 13 24 18 26 27 356 7 2 350 318 334 347 360 350 26 0 1 357 6 345 0
44 40 41 40 39 37 34 32 31 29 29 31 25 19 12 5 5 9 16 11 11 23 6 12 6 334 339 342 324 335 344 335 6 355 355 7 4 348
41 39 39 40 39 35 31 29 28 26 26 23 17 12 9 10 13 11 8 2 2 0 2 7 6 349 345 339 331 345 343 329 341 346 341 7 356 343
45 45 42 37 36 33 31 30 25 21 22 18 15 11 9 8 7 6 8 4 6 357 356 355 358 354 333 343 354 352 344 340 354 354 348 348 11 2
42 40 38 35 34 30 28 25 26 23 17 14 14 11 6 5 0 2 4 2 358 353 351 352 353 352 3 39 31 352 348 341 343 346 338 321 339 16
39 35 34 32 30 30 27 24 21 20 14 16 14 12 5 1 0 1 359 355 350 345 345 344 351 359 349 340 330 22 340 339 333 327 346 353 355 26
27 24 23 21 21 22 21 19 17 14 15 11 12 9 4 357 358 358 355 349 343 339 340 344 349 348 331 318 313 311 326 341 345 325 333 345 55 56
15 11 4 2 3 3 7 6 5 6 7 7 8 4 1 356 355 351 346 344 337 341 335 335 334 322 306 300 297 312 329 338 353 348 317 286 287 276
8 4 3 358 352 349 343 347 349 356 360 2 3 2 359 353 351 348 345 339 338 335 328 327 329 327 321 317 315 315 314 325 294 349 30 14 345 315
4 358 353 351 352 349 348 341 331 333 343 347 354 357 355 351 349 345 341 337 334 331 332 329 330 327 318 309 304 311 315 314 310 296 272 13 351 325